Regional Weather Roundup
Issued by NWS

Home | Current Version | Previous Version | Graphics & Text | Print | Product List | Glossary On
Versions: 1 2 3 4 5 6 7 8 9 10 11 12 13 14 15 16 17 18 19 20 21 22 23 24 25 26 27 28 29 30 31 32 33 34 35 36 37 38 39 40 41 42 43 44 45 46 47 48 49 50
000
ASUS43 KMKX 230811
RWRWI

WISCONSIN REGIONAL WEATHER ROUNDUP
NATIONAL WEATHER SERVICE MILWAUKEE/SULLIVAN WI
300 AM CDT WED APR 23 2014

NOTE: "FAIR" INDICATES FEW OR NO CLOUDS BELOW 12,000 FEET WITH NO
SIGNIFICANT WEATHER AND/OR OBSTRUCTIONS TO VISIBILITY.

WIZ001-002-006>008-014>016-023>028-230900-
NORTHWEST WISCONSIN

CITY           SKY/WX    TMP DP  RH WIND       PRES   REMARKS
SUPERIOR ARPT  CLEAR     30  27  89 NE5       30.14S WCI  25
ASHLAND        CLEAR     25  24  96 CALM      30.15S
HAYWARD        CLEAR     25  21  85 CALM      30.13S
SIREN          CLEAR     29  24  81 CALM      30.11S
RICE LAKE      CLEAR     30  28  93 NE3       30.13S
LADYSMITH      CLEAR     30  27  88 CALM      30.15R
EAU CLAIRE     CLEAR     32  25  75 NE5       30.11S WCI  27
MENOMONIE      SUNNY     36  28  72 E3        30.11F
NEW RICHMOND   PTCLDY    39  26  61 SE5       30.11R
OSCEOLA        PTCLDY    39  28  63 E9        30.13R WCI  33
$$

WIZ003>005-009-010-017-018-230900-
NORTH CENTRAL WISCONSIN

CITY           SKY/WX    TMP DP  RH WIND       PRES   REMARKS
WOODRUFF       CLEAR     24  15  68 CALM      30.13S
RHINELANDER    CLEAR     23  20  88 CALM      30.13S
EAGLE RIVER    CLEAR     24  24 100 CALM      30.12S
LAND O LAKES   CLEAR     21  19  94 CALM      30.13S
PHILLIPS       CLEAR     26  23  89 CALM      30.13R
TOMAHAWK       CLEAR     23  21  93 CALM      30.14S
MEDFORD        CLEAR     28  26  93 E5        30.12S WCI  22
MERRILL        CLEAR     25  24  95 CALM      30.14R
$$

WIZ029-030-035-036-043>047-230900-
CENTRAL WISCONSIN

CITY           SKY/WX    TMP DP  RH WIND       PRES   REMARKS
WAUSAU         CLEAR     30  26  85 CALM      30.13R
MOSINEE        CLEAR     32  28  86 N5        30.14S WCI  27
MARSHFIELD     CLEAR     34  26  72 CALM      30.13R
STEVENS POINT  CLEAR     24  22  89 CALM      30.15R
WAUPACA        CLEAR     34  27  75 CALM      30.15R
WAUTOMA        CLEAR     29  26  88 CALM      30.15R
WISC RAPIDS    CLEAR     29  25  85 CALM      30.15R
CAMP DOUGLAS   CLEAR     28  27  99 CALM      30.13S
$$

WIZ011>013-019>022-031-037>040-048>050-230900-
NORTHEAST WISCONSIN

CITY           SKY/WX    TMP DP  RH WIND       PRES   REMARKS
ANTIGO         CLEAR     28  27  96 CALM      30.13R
STURGEON BAY   CLEAR     30  23  74 N5        30.13R WCI  25
GREEN BAY      CLEAR     30  27  88 N7        30.14S WCI  23
MANITOWOC      CLEAR     33  27  78 N5        30.14R WCI  29
APPLETON       CLEAR     32  27  80 N6        30.14R WCI  26
CLINTONVILLE   CLEAR     32  28  86 CALM      30.14R
OSHKOSH        CLEAR     35  26  69 CALM      30.13R
$$

WIZ032>034-041-042-053>061-230900-
SOUTHWEST WISCONSIN

CITY           SKY/WX    TMP DP  RH WIND       PRES   REMARKS
LA CROSSE      CLEAR     40  27  59 VRB3      30.12S
SPARTA         CLEAR     29  25  82 CALM      30.13S
VIROQUA        FAIR      35  27  74 E7        30.10S WCI  29
BOSCOBEL       CLEAR     33  29  85 CALM      30.12S
PRAIRIE DU CHI PTCLDY    40  30  68 SE3       30.10S
PLATTEVILLE    FAIR      37  27  69 E9        30.11S WCI  30
$$

WIZ056-057-062-063-064-067-068-230900-
SOUTH CENTRAL WISCONSIN

CITY           SKY/WX    TMP DP  RH WIND       PRES   REMARKS
BARABOO/DELLS  CLEAR     33  26  76 CALM      30.12S
LONE ROCK      CLEAR     35  28  75 CALM      30.12F
WATERTOWN      CLEAR     33  29  84 NE5       30.12S WCI  29
MADISON        CLEAR     34  28  79 CALM      30.13S
MIDDLETON      FAIR      32  28  83 CALM      30.13R
MONROE         CLEAR     38  29  70 NE3       30.10S
JANESVILLE     CLEAR     34  30  86 CALM      30.11S
$$

WIZ051-052-058>065-066-070>072-230900-
SOUTHEAST WISCONSIN

CITY           SKY/WX    TMP DP  RH WIND       PRES   REMARKS
MILWAUKEE      CLEAR     34  27  75 N6        30.14R WCI  29
WAUKESHA       CLEAR     32  28  86 CALM      30.14R
MILWAUKEE/TIMM CLEAR     32  27  80 W5        30.14R WCI  27
RACINE         CLEAR     34  28  79 N7        30.15R WCI  28
BURLINGTON     CLEAR     31  28  90 CALM      30.12S
KENOSHA        CLEAR     32  28  85 N6        30.12S WCI  26
FOND DU LAC    CLEAR     33  27  78 CALM      30.13S
SHEBOYGAN      CLEAR     29  26  89 CALM      30.13R
WEST BEND      CLEAR     32  28  86 CALM      30.13R
JUNEAU         CLEAR     35  28  77 NE3       30.14R
$$

LSZ147-162-230900-
LAKE SUPERIOR

STATION/POSITION TIME  TEMP    WIND        PRES    WAVE
                       AIR SEA DIR/SP/G            HT/PER
                 (UTC) (F)     (DEG/KT/KT) (MB)    (FT/S)
DEVILS ISLAND    0800   34     100/  2/  3 1021.7R
PORT WING        0700   28     170/  2/  3 1020.7R
SAXON HARBOR     0700          190/  5/  6 1020.7R
$$

LMZ867-665-643>646-230900-
LAKE MICHIGAN

STATION/POSITION TIME  TEMP    WIND        PRES    WAVE
                       AIR SEA DIR/SP/G            HT/PER
                 (UTC) (F)     (DEG/KT/KT) (MB)    (FT/S)
NORTHPORT PIER   0700   31     310/  8/ 11 1020.0S
SISTER BAY       0709   31      30/  8/ 11   N/A
KEWAUNEE LAKESHO 0700   34     350/  5/  7 1020.6S
SHEBOYGAN LAKESH 0800   36     280/  6/  7 1021.0R
PORT WASHINGTON  0740   35     320/  3/  5 1020.7S
MILWAUKEE LAKESH 0700   36      10/  8/ 10   N/A
KENOSHA   LAKESH 0800   36     340/  7/  8   N/A
$$

TC  - TEMPERATURE IN CELSIUS
VSB - VISIBILITY IN STATUTE MILES
WCI - WIND CHILL INDEX
HX  - HEAT INDEX




USA.gov is the U.S. government's official web portal to all federal, state and local government web resources and services.